CAPE
348 527 731 604 726 751 864 885 834 984 1588 1966 1664 1399 1410 1393 1434 1022 641 646 879 439 449 441 2037 1762 1406 1594 1838 1820 1914 1638 1344
328 629 750 780 834 870 709 941 922 1021 1288 1926 1811 1569 1642 1476 1472 1086 517 806 827 588 981 990 1531 916 1162 1412 1574 1744 1844 1481 1453
497 664 766 935 980 921 917 991 996 1154 1208 1700 1864 1567 1604 1519 1326 1522 1086 1268 1064 1058 1027 735 1043 1173 1257 1259 1280 1569 1848 1233 1593
298 324 667 836 935 1084 941 978 1007 1123 1202 1280 1703 1590 1368 1410 1352 1303 1459 1052 1432 1235 1191 1205 1595 1171 1125 1102 1136 1277 1618 1535 1310
134 274 500 684 1047 1181 904 1027 1027 1078 1113 1187 1400 1497 1498 1428 1408 1310 1132 1188 1272 1366 1348 1285 1449 1582 1675 1458 1286 1321 1534 1070 798
221 168 684 489 825 1300 1193 1032 1245 1325 1050 1162 1198 1442 1572 1529 1520 1532 1364 1056 1155 1259 1341 1324 1167 1306 1500 1636 1251 1253 1263 1296 1414
89 307 416 1086 427 720 1163 1116 1255 1382 1256 1262 1284 1268 1317 1586 1680 1568 1559 1520 1415 1220 1381 1316 1189 1038 1227 1357 1265 1075 1094 1141 1462
258 330 351 480 723 925 354 831 1107 1396 1343 1426 1431 1473 1519 1469 1730 1880 1831 1866 1755 1565 1523 1421 1391 1239 1185 1334 1159 1016 1048 1136 1142
293 147 96 181 372 533 756 334 803 1298 1115 1379 1697 1568 1595 1558 1781 1913 1982 2058 1734 1715 1739 1712 1657 1337 1287 1402 1048 615 512 795 660
45 33 95 121 377 636 828 617 427 318 463 463 1376 1715 1538 1403 1611 1912 1957 2074 2087 1987 1893 2065 2025 1762 1550 1517 1453 489 359 229 280
15 55 111 439 520 640 819 786 630 528 148 29 170 654 1169 1429 1457 1598 1858 2066 1970 1936 1705 1881 1893 2038 2028 1642 1536 474 427 446 593
76 152 369 455 383 643 747 573 589 495 469 586 325 190 535 789 1075 1184 1436 1694 1900 1986 1941 1726 1737 1827 1669 1608 1377 180 398 418 408
67 197 294 337 380 396 426 548 484 462 492 552 545 583 512 434 490 621 787 1058 1406 1514 1567 1653 1626 1572 1634 1514 1182 47 95 117 622
133 177 247 270 211 216 306 319 367 346 398 423 514 821 313 184 56 247 352 510 661 1078 1221 1142 1081 802 566 592 546 107 0 19 652
153 132 146 123 180 178 290 324 258 405 458 599 659 684 468 79 18 110 74 29 119 255 515 668 365 42 0 2 2 6 0 0 8
64 62 63 0 0 121 277 275 265 419 523 317 581 524 352 92 5 5 21 29 13 22 45 74 11 0 0 0 0 0 0 0 0
58 77 125 41 9 44 145 255 182 294 268 163 148 458 298 210 52 2 3 3 4 2 0 1 2 2 2 3 3 2 1 0 0
71 164 257 156 129 117 147 212 218 228 246 76 93 89 112 154 16 1 0 0 0 1 0 1 0 0 1 1 2 1 2 2 1
303 323 591 507 429 293 237 239 237 161 72 3 0 1 2 42 1 4 2 0 0 1 0 0 0 0 0 0 0 1 1 0 0
801 736 886 810 683 483 368 274 247 144 119 68 1 1 1 1 5 4 2 1 0 0 0 0 0 0 0 0 0 0 0 0 0
CIN
-11 -8 -6 -5 -3 -19 -4 -3 -3 -2 -6 -10 -20 -23 -10 -2 -4 -5 -11 -5 -7 -2 -7 -2 -15 -7 -1 -1 -1 -1 -1 -2 -2
-4 -4 -5 -3 -1 -3 -3 -2 -2 -3 -3 -1 -8 -10 -5 -1 -2 -10 -3 -3 -5 -2 -6 -1 -1 -2 0 -1 -2 0 -1 -2 -5
-2 -4 -11 -2 -1 -1 -3 -3 -2 -5 -3 -1 -2 -2 -1 -2 -1 -1 -4 -1 -2 -3 -13 -8 -30 -1 -1 -1 -1 -2 0 -1 -4
-3 -31 -7 -2 -2 -2 -3 -3 -4 -3 -2 -3 -3 -3 -1 -1 -1 -2 -1 -1 -1 -2 -4 -2 -1 -6 -1 -1 -1 -1 0 -1 -4
-26 -27 -4 0 -1 -1 -1 -3 -4 -3 -2 -2 -2 -3 -1 -3 -1 -1 -2 -1 -1 -1 0 -1 -1 -1 0 0 -1 0 0 -2 0
-14 -30 -3 -18 -1 -5 -2 -3 -4 -5 -5 -2 -4 -2 -2 -4 -2 -3 -2 -2 0 -1 -1 0 -1 -1 -1 0 -1 -1 -1 -3 -2
-3 -11 -5 -2 -33 -7 -2 -2 -1 -4 -15 -14 -7 -2 -2 -2 -1 -2 -2 -3 -1 -1 -1 -1 -1 -1 -1 -1 -1 -1 -1 -1 -1
-6 -1 -2 -2 -1 -30 -68 -15 -4 -1 -3 -2 -4 -11 -4 -2 -3 -1 -1 -1 -1 0 -1 -1 -1 -1 -1 0 -1 -1 -2 -3 -5
-9 -13 -35 -21 -13 -13 -32 -101 -26 -2 -6 0 -1 -5 -9 -3 -1 -1 -1 -1 -4 -3 -2 -1 0 -3 -1 -1 -1 -4 -14 -6 -12
-37 -38 -43 -58 -30 -22 -15 -35 -49 -54 -30 -37 -2 -1 -5 -4 -3 -2 -2 -3 -3 -2 -3 -1 -1 -1 -3 -1 -1 -37 -48 -73 -33
-47 -48 -64 -54 -42 -32 -20 -13 -8 -21 -69 -104 -51 -27 -8 -4 -5 -2 -2 -1 -2 -3 -7 -3 -4 -2 -1 -4 -1 -85 -83 -53 -21
-36 -48 -51 -59 -78 -70 -40 -40 -16 -15 -9 -3 -35 -43 -9 -4 -4 -3 -2 0 -1 -2 -1 -5 -2 -3 -5 -5 -4 -183 -97 -53 -15
-66 -53 -57 -75 -85 -89 -54 -48 -38 -16 -8 -2 0 -5 0 -2 -3 0 -2 0 0 -3 -4 -3 -3 -3 -2 0 -2 -243 -174 -105 -2
-60 -65 -75 -91 -93 -80 -62 -56 -40 -53 -27 -12 -1 0 -32 -25 -79 -50 -15 -2 -2 -1 0 -1 0 -18 -51 -47 -52 -158 0 -147 -1
-68 -81 -102 -87 -69 -61 -53 -58 -64 -30 -23 -7 -1 0 -5 -114 -165 -64 -63 -78 -42 -3 0 0 -2 -78 0 0 0 -59 0 0 -25
-66 -74 -86 0 0 -53 -23 -44 -59 -20 -15 -43 -1 0 -16 -98 -187 -175 -177 -138 -137 -97 -18 -18 -66 0 0 0 0 0 0 0 0
-56 -49 -34 -45 -24 -44 -22 -20 -45 -32 -33 -64 -77 0 -13 -35 -84 0 0 0 0 0 0 0 0 0 0 0 0 0 0 0 0
-22 -9 -4 -9 -17 -14 -17 -25 -30 -31 -33 -72 -67 -82 -64 -33 -118 0 0 0 0 0 0 0 0 0 0 0 0 0 0 0 0
-13 -2 -1 -7 -14 -9 -9 -15 -17 -35 -59 0 0 0 0 -35 0 0 0 0 0 0 0 0 0 0 0 0 0 0 0 0 0
-5 -5 -1 -1 -1 -1 -1 -1 -5 -32 -33 -56 0 0 0 0 0 0 0 0 0 0 0 0 0 0 0 0 0 0 0 0 0
Wind_Speed
13 14 1 10 4 7 7 3 4 7 10 12 13 16 19 30 20 24 24 23 24 21 25 14 6 8 10 17 15 15 14 15 19
12 14 14 7 7 10 11 7 7 4 6 8 13 14 16 9 9 28 28 24 24 21 24 12 7 9 6 17 18 20 18 21 20
12 13 13 16 19 24 3 7 7 5 5 5 9 10 4 15 4 14 23 24 22 22 18 25 22 7 15 16 21 21 21 23 16
12 15 16 16 20 19 18 6 6 7 7 7 5 5 4 2 2 7 4 25 23 25 25 20 17 16 14 19 18 17 19 24 23
11 15 15 14 15 17 18 15 22 12 8 10 9 9 9 7 10 5 4 3 4 12 14 13 13 8 9 19 24 17 15 20 23
10 13 14 16 15 16 19 20 22 20 23 11 10 11 10 13 9 7 29 8 5 9 8 9 8 7 14 14 11 12 14 15 22
12 12 13 13 14 15 15 17 20 24 27 27 26 18 12 11 11 11 8 13 11 14 10 8 6 10 10 11 15 9 13 18 20
11 12 12 13 14 14 16 17 19 23 24 25 25 29 27 16 17 16 20 14 13 17 18 14 14 12 13 14 16 12 12 18 19
8 10 13 14 15 16 15 18 18 19 24 25 25 27 31 29 17 18 19 20 18 14 15 18 17 22 19 16 21 20 14 17 21
7 10 13 15 17 18 17 14 14 17 21 24 25 28 31 29 26 21 19 20 20 18 16 16 15 16 20 22 24 21 13 15 20
7 9 13 16 17 18 17 13 13 15 18 20 25 28 29 32 28 25 23 21 22 22 20 20 20 19 20 22 23 18 17 17 20
7 10 13 16 19 20 19 17 17 16 18 17 18 23 28 30 30 30 29 26 28 26 26 26 25 24 23 21 19 17 15 17 18
8 10 13 16 19 20 20 19 20 21 21 18 21 20 22 27 30 32 32 32 31 30 28 28 28 25 24 24 21 17 17 17 17
8 11 13 16 19 21 20 21 21 22 25 25 21 20 20 21 23 29 30 33 33 30 28 26 22 23 24 22 21 20 17 16 18
8 11 14 16 19 20 19 20 22 23 22 21 20 20 18 19 21 21 23 28 30 33 32 28 26 25 25 24 25 23 19 18 19
11 13 15 17 19 18 19 20 21 23 21 21 20 16 18 19 20 21 21 22 24 24 25 28 30 29 28 24 23 20 16 15 14
12 14 15 16 17 19 21 20 20 20 20 19 19 17 13 17 18 18 17 19 20 21 21 22 24 23 22 19 20 18 16 13 13
15 15 14 15 17 19 20 21 21 19 18 18 16 15 15 13 14 14 13 15 17 17 17 15 13 13 12 11 10 12 10 9 8
18 16 15 15 17 19 20 21 21 20 18 17 16 16 15 13 12 12 11 12 13 16 16 14 11 8 7 8 6 5 5 4 5
19 18 16 16 18 19 21 23 22 20 18 15 15 15 14 13 12 11 11 10 11 12 13 13 12 11 9 7 4 4 5 4 5
Wind_Direction
329 306 314 165 162 276 291 153 158 147 144 145 144 148 157 220 252 247 247 248 242 252 224 290 58 333 315 283 297 299 311 306 220
339 318 303 300 293 154 170 166 167 191 159 154 150 149 150 270 270 237 236 249 250 260 251 295 335 331 347 285 280 266 278 247 264
333 327 318 296 285 271 221 180 194 210 216 183 161 151 148 152 243 269 257 257 261 260 278 257 253 330 294 290 268 269 269 252 298
344 323 310 306 291 286 274 214 214 214 238 233 233 194 193 190 194 155 180 252 260 260 262 279 289 294 296 279 288 296 286 262 263
2 347 325 329 310 289 278 276 264 259 215 248 249 258 261 256 271 267 179 230 191 286 286 291 293 311 313 284 265 297 305 282 273
358 345 340 330 324 298 281 271 267 261 261 258 254 258 257 265 260 263 246 269 263 277 283 288 296 300 294 296 305 315 312 309 289
349 348 343 340 335 318 293 282 271 260 259 260 264 269 258 256 261 262 257 269 276 278 279 281 279 290 296 296 291 313 310 298 298
1 349 351 344 333 335 305 293 285 269 265 264 265 262 268 267 268 270 270 272 271 273 275 279 282 284 286 289 290 298 303 297 300
11 6 345 347 337 325 326 300 299 290 273 267 268 263 260 263 269 270 271 271 272 271 274 276 279 275 279 284 283 286 291 293 295
14 358 345 339 334 326 325 321 307 305 288 274 269 264 262 263 267 269 271 273 271 270 267 271 273 278 278 279 280 286 287 288 292
12 358 342 335 333 331 336 337 324 318 303 296 275 269 269 266 267 270 269 272 272 272 271 271 273 275 277 280 281 287 287 288 288
2 350 343 330 329 325 324 324 311 313 308 312 306 285 274 271 271 271 273 273 271 272 272 273 274 274 277 280 284 287 289 290 290
359 355 346 341 334 332 323 319 308 296 297 307 303 304 296 279 273 272 274 274 274 273 273 275 274 275 276 278 280 285 287 289 289
353 354 350 346 341 329 324 318 312 304 289 285 301 311 311 307 289 277 276 275 275 277 277 277 276 275 281 284 279 281 282 283 289
349 354 346 340 334 331 335 328 320 305 303 301 298 302 314 314 305 300 291 282 279 274 275 275 277 277 281 283 281 281 277 281 289
332 334 334 333 329 331 331 333 329 312 314 309 306 307 304 312 316 308 303 295 293 290 285 279 277 276 277 278 281 283 276 282 283
323 328 330 330 330 328 325 330 332 331 326 322 310 306 315 312 319 325 319 317 309 304 297 291 283 282 278 278 276 274 271 278 287
317 322 325 325 326 326 326 325 329 333 334 329 320 314 311 317 320 336 347 347 337 329 322 321 317 304 299 293 286 282 289 285 287
311 314 316 319 320 320 322 321 326 329 330 330 325 313 306 307 311 319 332 347 346 353 357 352 354 334 336 340 345 356 8 4 346
308 307 310 314 317 320 321 320 321 323 326 328 322 314 311 306 301 303 312 322 332 338 345 359 358 354 359 351 15 351 3 3 34